Regional Weather Roundup
Issued by NWS

Home | Current Version | Previous Version | Graphics & Text | Print | Product List | Glossary On
Versions: 1 2 3 4 5 6 7 8 9 10 11 12 13 14 15 16 17 18 19 20 21 22 23 24 25 26 27 28 29 30 31 32 33 34 35 36 37 38 39 40 41 42 43 44 45 46 47 48 49 50
000
ASUS43 KIND 261800
RWRIN

WEATHER ROUNDUP FOR INDIANA
NATIONAL WEATHER SERVICE INDIANAPOLIS IN
200 PM EDT TUE SEP 26 2017

NOTE: "FAIR" INDICATES FEW OR NO CLOUDS BELOW 12,000 FEET WITH NO
SIGNIFICANT WEATHER AND/OR OBSTRUCTIONS TO VISIBILITY.

* - STATION DOES NOT REPORT WEATHER SUCH AS PRECIPITATION OR FOG.

+ - STATION NOT QUALITY CONTROLLED BY THE NATIONAL WEATHER SERVICE.
    USE DATA WITH CAUTION...ESPECIALLY DEWPOINT AND RELATIVE
    HUMIDITY OBSERVATIONS.

INZ001>003-010>013-019-020-261900-
NORTHWEST INDIANA

CITY           SKY/WX    TMP DP  RH WIND       PRES   REMARKS
GARY /AIRPORT/ MOSUNNY   90  55  31 S7        29.96F
KNOX *+        PTSUNNY   88  63  42 SW8G17    29.97F
LA PORTE +     MOSUNNY   87  64  45 SW8       29.98F
6HR MIN TEMP:  61; 6HR MAX TEMP:  88;


$$

LMZ046-743>745-261900-
SOUTHERN LAKE MICHIGAN

STATION/POSITION TIME  TEMP    WIND        PRES    WAVE
                       AIR SEA DIR/SP/G            HT
                 (UTC) (F)     (DEG/KT/KT) (MB)    (FT)
BURNS HARBOR     1740   85     220/ 13/ 16 1014.6F
MICHIGAN CITY    1730   84     210/ 10/ 11   N/A
5NW MICH CITY    1750   80 73  200/  2/  4   N/A     0

$$

INZ004-005-014>016-021>024-261900-
NORTH CENTRAL INDIANA

CITY           SKY/WX    TMP DP  RH WIND       PRES   REMARKS
ELKHART        MOSUNNY   86  63  45 SW9       29.98F
GOSHEN         MOSUNNY   88  61  40 S9        29.98F
6HR MIN TEMP:  62; 6HR MAX TEMP:  88;

SOUTH BEND     MOSUNNY   88  62  41 W12       29.98F
6HR MIN TEMP:  64; 6HR MAX TEMP:  88;

WARSAW +       SUNNY     86  64  48 W7        29.99F

$$

INZ006>009-017-018-025>027-261900-
NORTHEAST INDIANA

CITY           SKY/WX    TMP DP  RH WIND       PRES   REMARKS
AUBURN +       SUNNY     86  61  42 SW5       30.00F
FORT WAYNE     MOSUNNY   87  63  44 SW10      30.00F
6HR MIN TEMP:  64; 6HR MAX TEMP:  88;


$$

INZ028-029-035-036-043>045-051>053-261900-
WEST CENTRAL INDIANA

CITY           SKY/WX    TMP DP  RH WIND       PRES   REMARKS
LAFAYETTE      NOT AVBL
TERRE HAUTE    MOSUNNY   90  61  37 SW7       29.99F
6HR MIN TEMP:  63; 6HR MAX TEMP:  90;


$$

INZ030>032-037>040-046>048-054>057-064-065-261900-
CENTRAL INDIANA

CITY           SKY/WX    TMP DP  RH WIND       PRES   REMARKS
ANDERSON       SUNNY     86  63  45 CALM      30.04
COLUMBUS       SUNNY     84  57  39 CALM      30.01F
GREENWOOD *+   SUNNY     91  64  41 SW7       30.02F
INDIANAPOLIS   MOSUNNY   89  63  41 SW9       30.00F
6HR MIN TEMP:  68; 6HR MAX TEMP:  89;

-EAGLE CREEK   PTSUNNY   87  63  44 VRB3      30.00F
6HR MIN TEMP:  66; 6HR MAX TEMP:  88;

KOKOMO +       MOSUNNY   86  65  49 S5        30.01F
6HR MIN TEMP:  65; 6HR MAX TEMP:  88;

MT COMFORT *+  SUNNY     88  63  42 SW5       30.02F
SHELBYVILLE    PTSUNNY   86  62  44 VRB3      30.00F
6HR MIN TEMP:  64; 6HR MAX TEMP:  90;


$$

INZ033-034-041-042-049-050-058-059-261900-
EAST CENTRAL INDIANA

CITY           SKY/WX    TMP DP  RH WIND       PRES   REMARKS
MUNCIE         MOSUNNY   89  62  40 MISG      30.01F
6HR MIN TEMP:  70; 6HR MAX TEMP:  90;


$$

INZ060-061-067>069-081>083-085>088-261900-
SOUTHWEST INDIANA

CITY           SKY/WX    TMP DP  RH WIND       PRES   REMARKS
EVANSVILLE     MOSUNNY   89  63  41 CALM      30.00F
6HR MIN TEMP:  66; 6HR MAX TEMP:  89;

HUNTINGBURG +  MOSUNNY   85  68  56 E3        30.00F
6HR MIN TEMP:  65; 6HR MAX TEMP:  86;


$$

INZ062-063-066-070>080-084-089>092-261900-
SOUTH CENTRAL AND SOUTHEAST INDIANA

CITY           SKY/WX    TMP DP  RH WIND       PRES   REMARKS
BLOOMINGTON    PTSUNNY   86  61  42 W5        30.01F
6HR MIN TEMP:  63; 6HR MAX TEMP:  90;

MADISON *+     SUNNY     88  52  29 CALM      30.04F
SEYMOUR +      SUNNY     90  61  37 CALM      30.00F

$$





USA.gov is the U.S. government's official web portal to all federal, state and local government web resources and services.